Tracking 30009 objects as of 7-Dec-2024
HD Live streaming from Space Station
objects crossing your sky now

SHIYAN 19 (SY-19)

Track SHIYAN 19 (SY-19) now!
10-day predictions


NORAD ID: 55861
Int'l Code: 2023-034A
Perigee: 459.2 km
Apogee: 471.2 km
Inclination: 97.4 °
Period: 93.8 minutes
Semi major axis: 6836 km
RCS: Unknown
Launch date: March 15, 2023
Source: People's Republic of China (PRC)
Launch site: Jiuquan Satellite Launch Center, China (JSC)
Your satellite tracking list
Your tracking list is empty




NASA's NSSDC Master Catalog

Two Line Element Set (TLE):
1 55861U 23034A   24342.13808473  .00017482  00000-0  50061-3 0  9993
2 55861  97.4428 174.4532 0008763 201.8069 158.2803 15.35957498 96500
Source of the keplerian elements: AFSPC